Domeene meie andmebaasis: 271236
Otsi domeeni
Registreeri domeen:

ALMIC OÜ domeenid

Näitan 17 069 üksusest 15 721-15 740.
NimiRegistripidajaDomeeni omanikStaatusReg. kuupäevMuudatuse kuupäevAegumise kuupäev 
 
bbbff.eeALMIC OÜEraisikok (paid and in zone)2025-06-07 12:32:062025-06-07 12:32:062026-06-08
2138.eeALMIC OÜEraisikok (paid and in zone)2022-06-25 08:59:102025-06-07 12:32:072026-06-26
myqorzo.eeALMIC OÜCytokinetics, Inc.ok (paid and in zone)2025-06-07 10:04:082025-06-07 10:04:082026-06-08
hcmbeyondtheheart.eeALMIC OÜCytokinetics, Inc.ok (paid and in zone)2025-06-07 10:04:122025-06-07 10:04:122026-06-08
tabl.eeALMIC OÜEraisikok (paid and in zone)2024-07-28 21:14:082025-06-06 12:52:042026-07-29
k5895.eeALMIC OÜEraisikok (paid and in zone)2025-06-07 10:13:072025-06-07 10:13:072026-06-08
bet365.com.eeALMIC OÜEraisikok (paid and in zone)2025-06-06 18:30:112025-06-06 18:30:112026-06-07
12323.eeALMIC OÜEraisikok (paid and in zone)2025-06-05 14:41:072025-06-05 14:41:072026-06-06
20thcenturyfox.eeALMIC OÜTwentieth Century Fox Film Corporationok (paid and in zone)2010-07-09 19:56:152025-06-05 21:37:042026-07-10
iceage.eeALMIC OÜTwentieth Century Fox Film Corporationok (paid and in zone)2010-07-09 19:50:232025-06-05 21:36:102026-07-10
familyguy.com.eeALMIC OÜTwentieth Century Fox Film Corporationok (paid and in zone)2010-07-09 20:45:132025-06-05 21:48:042026-07-10
predator.com.eeALMIC OÜTwentieth Century Fox Film Corporationok (paid and in zone)2010-07-09 20:45:112025-06-05 21:48:062026-07-10
yamaha-motor-scandinavia.eeALMIC OÜYamaha Motor Europe N.V.ok (paid and in zone)2010-07-09 21:58:542025-06-05 21:56:032026-07-10
biensimple.com.eeALMIC OÜTwentieth Century Fox Film Corporationok (paid and in zone)2010-07-09 20:46:062025-06-05 21:49:072026-07-10
3368.eeALMIC OÜEraisikok (paid and in zone)2025-06-05 17:14:062025-06-05 17:14:062026-06-06
stanl.eeALMIC OÜEraisikok (paid and in zone)2021-07-08 10:24:042025-06-06 11:18:582026-07-09
schaeffler.eeALMIC OÜSchaeffler Technologies AG & Co. KGok (paid and in zone)2010-07-09 16:39:492025-06-06 09:31:112026-07-10
glee.eeALMIC OÜTwentieth Century Fox Film Corporationok (paid and in zone)2010-07-09 19:56:122025-06-05 21:44:092026-07-10
glassmedic.eeALMIC OÜBelron International Limitedok (paid and in zone)2010-07-09 19:49:242025-06-05 21:55:082026-07-10
ign.com.eeALMIC OÜIGN Entertainment Inc.ok (paid and in zone)2010-07-09 20:45:102025-06-05 21:49:082026-07-10